Regional Weather Roundup
Issued by NWS

Home | Current Version | Previous Version | Graphics & Text | Print | Product List | Glossary On
Versions: 1 2 3 4 5 6 7 8 9 10 11 12 13 14 15 16 17 18 19 20 21 22 23 24 25 26 27 28 29 30 31 32 33 34 35 36 37 38 39 40 41 42 43 44 45 46 47 48 49 50
440
ASUS43 KLSX 120357
RWRMO

WEATHER SUMMARY FOR MISSOURI
NATIONAL WEATHER SERVICE SPRINGFIELD MO
1000 PM CST MON DEC 11 2017

NOTE: "FAIR" INDICATES FEW OR NO CLOUDS BELOW 12,000 FEET WITH NO
       SIGNIFICANT WEATHER AND/OR OBSTRUCTIONS TO VISIBILITY.
       CURRENT SKY AND/OR WEATHER CONDITIONS ARE NOT AVAILABLE FOR
       CHILLICOTHE AND FARMINGTON.

MOZ001>031-035>038-043-044-053-054-120500-
...NORTHERN AND WESTERN MISSOURI...

CITY           SKY/WX    TMP DP  RH WIND       PRES   REMARKS
KANSAS CTY INT PTCLDY    37  26  64 N17G25    30.23R WCI  27
LEE`S SUMMIT   PTCLDY    39  26  59 N18G29    30.20R WCI  30
ST JOSEPH      PTCLDY    36  25  64 N21G31    30.26R WCI  25
CHILLICOTHE      N/A     36  24  62 NW10G25   30.20R WCI  28

$$
MOZ066>068-077>081-088>096-101>105-120500-
...SOUTHWEST MISSOURI...

CITY           SKY/WX    TMP DP  RH WIND       PRES   REMARKS
SPRINGFIELD    MOCLDY    47  30  51 NW16G30   30.09R
JOPLIN         PTCLDY    45  31  58 NW14G22   30.18R

$$
MOZ032>034-039>042-045>050-055>058-069>072-120500-
...CENTRAL MISSOURI...

CITY           SKY/WX    TMP DP  RH WIND       PRES   REMARKS
COLUMBIA       NOT AVBL
JEFFERSON CITY CLOUDY    46  31  55 NW18G31   30.08R
ROLLA          CLOUDY    45  32  60 NW21G32   30.04R
SEDALIA        CLOUDY    41  31  67 N24G32    30.15R
WARRENSBURG    CLOUDY    41  28  60 NW15G28   30.17R

$$
MOZ051-052-059>065-120500-
...EAST CENTRAL MISSOURI...

CITY           SKY/WX    TMP DP  RH WIND       PRES   REMARKS
ST LOUIS INTL  CLOUDY    45  34  65 NW25G35   29.99R

$$
MOZ072>076-082>087-097>100-106>115-120500-
...SOUTH CENTRAL AND SOUTHEAST MISSOURI...

CITY           SKY/WX    TMP DP  RH WIND       PRES   REMARKS
CAPE GIRARDEAU CLOUDY    49  30  48 NW13      29.97R
POPLAR BLUFF   CLOUDY    51  28  41 NW10G18   29.99R
WEST PLAINS    CLEAR     46  28  49 NW8G20    30.04R

$$



USA.gov is the U.S. government's official web portal to all federal, state and local government web resources and services.